Simultaneous Nadir Overpasses (SNOs) Predictions

Prediction of SNOs between GOES-16 and AQUA Satellite Orbit:

Table of predicted SNOs for the next 14.0 days since TLE Epoch: 8/23/2019
Index Date Time (GOES-16) GOES-16 Lat,Lon AQUA Lat,Lon Distance(km) Time Diff (sec)
1 08/24/2019 06:23:18 -0.03, -75.21 -0.63, -72.38 320.73 80
2 08/24/2019 18:44:42 0.04, -75.22 -0.48, -77.57 268.08 80
3 08/26/2019 18:35:11 0.04, -75.23 0.17, -74.62 68.34 80
4 08/28/2019 18:23:00 0.05, -75.23 0.82, -71.67 405.13 80
5 08/29/2019 06:44:15 -0.05, -75.22 0.32, -76.82 182.40 80
6 08/31/2019 06:29:24 -0.05, -75.24 -0.34, -73.87 155.34 80
7 08/31/2019 18:50:48 0.05, -75.25 -0.78, -79.06 433.22 80
8 09/02/2019 06:17:13 -0.05, -75.26 -1.00, -70.92 493.84 80
9 09/02/2019 18:38:37 0.05, -75.28 -0.12, -76.11 94.54 80
10 09/04/2019 18:29:06 0.06, -75.31 0.54, -73.16 244.66 80
11 09/05/2019 06:50:21 -0.06, -75.30 0.58, -78.31 342.05 80




NCC Satellite Simultaneous Nadir Overpasses (SNOs) Prediction Service
